Regional Weather Roundup
Issued by NWS State College, PA

Home | Current Version | Previous Version | Graphics & Text | Print | Product List | Glossary On
Versions: 1 2 3 4 5 6 7 8 9 10 11 12 13 14 15 16 17 18 19 20 21 22 23 24 25 26 27 28 29 30 31 32 33 34 35 36 37 38 39 40 41 42 43 44 45 46 47 48 49 50
431
ASUS41 KCTP 292103
RWRCTP

REGIONAL WEATHER ROUNDUP
NATIONAL WEATHER SERVICE STATE COLLEGE PA
500 PM EDT WED MAR 29 2017

Note: "fair" indicates few or no clouds below 12,000 feet with no
significant weather and/or obstructions to visibility.

* = STATION THAT DOES NOT REPORT PRECIPITATION /E.G. RAIN...SNOW...ETC/
    THUNDER OR FOG.

PAZ002>004-007>009-013>016-020>023-029>032-292200-
WESTERN PENNSYLVANIA

CITY           SKY/WX    TMP DP  RH WIND       PRES   REMARKS
ERIE           SUNNY     43  32  65 NW6       30.24F
MEADVILLE      SUNNY     54  27  35 NE12      30.19F
FRANKLIN*      SUNNY     55  27  33 N3        30.18S
NEW CASTLE     FAIR      58  32  37 N12G17    30.18F
BEAVER COUNTY  SUNNY     59  30  33 N6        30.17S
BUTLER*        SUNNY     57  34  41 NE5       30.17F
PITTSBURGH INT MOSUNNY   60  33  36 N8        30.15F
PITTSBURGH     SUNNY     60  30  32 N8        30.14F
INDIANA*       SUNNY     59  30  33 NW6G14    30.17F
LATROBE        SUNNY     57  34  41 N9        30.16F
WASHINGTON CO* SUNNY     59  34  38 NW8       30.17F
$$

PAZ004>006-010>012-017>019-024>028-033>037-041-042-045-046-049>053-292200-
CENTRAL PENNSYLVANIA

CITY           SKY/WX    TMP DP  RH WIND       PRES   REMARKS
BRADFORD       SUNNY     50  27  40 N12G17    30.17S
DUBOIS         SUNNY     56  25  30 NW9       30.14S
CLEARFIELD     SUNNY     58  28  32 N12       30.14S
JOHNSTOWN      SUNNY     54  30  40 NW9       30.12S
ALTOONA        SUNNY     60  35  39 N12       30.12S
STATE COLLEGE  SUNNY     55  30  38 NE16G22   30.13S
WILLIAMSPORT   SUNNY     56  27  32 NW8       30.16R
SELINSGROVE    SUNNY     56  33  42 N14G24    30.16R
FT INDIANTOWN  SUNNY     56  29  36 N9G17     30.13R
CAPITAL CITY   SUNNY     59  29  31 NW12      30.14R
HARRISBURG     MOSUNNY   57  31  37 N12       30.13R
YORK           SUNNY     58  34  40 N10G22    30.12R
$$

PAZ038>040-043-044-047-048-054-055-060>062-067>071-292200-
EASTERN PENNSYLVANIA

CITY           SKY/WX    TMP DP  RH WIND       PRES   REMARKS
SCRANTON       SUNNY     51  27  39 NW21G28   30.12S
MOUNT POCONO   SUNNY     46  25  43 N20G28    30.08R
ALLENTOWN      SUNNY     57  28  33 N17       30.10R
QUAKERTOWN*      N/A     59  32  36 NW10      30.10R
READING        MOSUNNY   58  32  37 NW14G23   30.10R
LANCASTER      SUNNY     58  34  40 N13G22    30.11R
COATESVILLE    CLEAR     57  32  38 NW15      30.10R
POTTSTOWN      SUNNY     57  29  34 N12       30.10R
BLUE BELL      SUNNY     55  32  41 N7G16     30.08R
DOYLESTOWN     SUNNY     58  30  34 NW14G24   30.07R
WILLOW GROVE   NOT AVBL
NORTH PHILA    SUNNY     61  32  33 N14G25    30.08R
PHILADELPHIA   SUNNY     61  31  32 N9G22     30.08R
$$




USA.gov is the U.S. government's official web portal to all federal, state and local government web resources and services.